YUNYAO-1 43

导读

YUNYAO-1 43是中国于2025年3月21日发射的卫星,作为“云遥”系列卫星的一员,该卫星主要服务于遥感观测领域,可获取多维度对地观测数据,在气象监测、灾害预警、资源勘探、生态环境评估等领域具备应用价值,进一步充实了中国遥感卫星星座,提升了对地观测能力。

基本信息
目录编号:
63344
目录名称:
YUNYAO-1 43
国际标识:
2025-059A
轨道中心:
EARTH
卫星名称:
YUNYAO-1 43
卫星全名:
YUNYAO-1 43
卫星状态:
在轨 (已飞行533 天)
发射日期:
2025-03-21 UTC
国别 :
中国 (CN)
星等 :
--
轨道信息
数据来源 国际轨道数据
星历时间: 2026-09-05T14:36:03+0800
12小时前
查看轨道信息
半长轴: 6910.307km
偏心率: 0.0012758
轨道倾角: 97.614°
近地点辐角 235.903°
升交点赤经 69.248°
平近点角 124.099°
近地点: 523.353km
远地点: 540.987km
周期: 95.281分钟
每日圈数: 15.113213
详细信息
使用方式:
暂无
2D轨道图
3D轨道图
轨道高度分析图
轨道倾角分析图
轨道综合分析图
查看轨道综合分析图
交会数据列表
事件ID 空间交会对象 最接近时刻(TCA) 交会距离 交会风险概率(CRP) 交会风险指数(CRI) 操作
CDM_260908-000804-185106-334422
2026-09-08T
00:08:02+0000
1.398 km
极远距离
3.848987E-6 低风险 0.47
CDM_260907-064206-334406-869722
OBJECT G (68697)
2026-09-07T
06:42:46+0000
2.599 km
极远距离
1.449648E-6 低风险 0.38